AIC4209 VIDP-OMDB

Flight info

Callsign AIC4209
Flight time N/A
Altitude 38000
Route DUDUM6G DUDUM A474 NIKOT R462 UUD J61 LAXOM L639 ISLIL/N0485F400 L639 RASKI L301 RAGMA N571 VUSET A454 PASOV B540 KUPMA/N0459F240 B540 MIVEK P574 IMPED
Aircraft B77L/H-SDE1E2E3FGHIJ2J3J4J5M1RWXY/LB1D1

Departure

Time 2026-05-04 06:05
Airport Indira Gandhi International Airport (VIDP)

Arrival

Time N/A
Airport Dubai International Airport (OMDB)
Time Latitude Longitude Altitude Speed Heading
2026-05-04 05:47 28.55417 77.08070 755 ft 0 kts 327°
2026-05-04 05:55 28.55408 77.08077 750 ft 2 kts 326°
2026-05-04 05:56 28.55394 77.08087 750 ft 2 kts 326°
2026-05-04 05:56 28.55382 77.08100 750 ft 2 kts 290°
2026-05-04 05:56 28.55380 77.08118 751 ft 2 kts 254°
2026-05-04 05:56 28.55383 77.08129 750 ft 1 kts 242°
2026-05-04 05:57 28.55384 77.08130 750 ft 0 kts 242°
2026-05-04 05:58 28.55383 77.08129 750 ft 1 kts 242°
2026-05-04 05:58 28.55352 77.08069 750 ft 16 kts 239°
2026-05-04 05:59 28.55295 77.07959 751 ft 17 kts 239°
2026-05-04 05:59 28.55252 77.07839 752 ft 17 kts 275°
2026-05-04 05:59 28.55247 77.07755 752 ft 10 kts 227°
2026-05-04 05:59 28.55177 77.07733 753 ft 14 kts 194°
2026-05-04 06:00 28.55091 77.07708 752 ft 10 kts 200°
2026-05-04 06:00 28.55064 77.07642 751 ft 10 kts 285°
2026-05-04 06:00 28.55087 77.07563 753 ft 11 kts 284°
2026-05-04 06:00 28.55108 77.07467 755 ft 15 kts 284°
2026-05-04 06:01 28.55142 77.07325 752 ft 21 kts 284°
2026-05-04 06:01 28.55179 77.07162 754 ft 21 kts 284°
2026-05-04 06:03 28.55002 77.06872 749 ft 1 kts 105°
2026-05-04 06:03 28.55001 77.06878 750 ft 1 kts 105°
2026-05-04 06:05 28.52386 77.13561 3216 ft 227 kts 162°
2026-05-04 06:05 28.48971 77.13112 4600 ft 257 kts 188°
2026-05-04 06:05 28.47254 77.12714 5651 ft 252 kts 190°
2026-05-04 06:06 28.45534 77.12322 6444 ft 255 kts 192°
2026-05-04 06:06 28.43780 77.11927 7260 ft 257 kts 192°
2026-05-04 06:06 28.42037 77.11541 8306 ft 253 kts 193°
2026-05-04 06:06 28.40274 77.11155 9077 ft 260 kts 193°
2026-05-04 06:07 28.38494 77.10769 9933 ft 266 kts 193°
2026-05-04 06:07 28.36606 77.10359 10344 ft 288 kts 193°
2026-05-04 06:07 28.34535 77.09910 10586 ft 318 kts 193°
2026-05-04 06:07 28.33362 77.09657 10730 ft 331 kts 194°
2026-05-04 06:08 28.31129 77.08789 10896 ft 352 kts 212°
2026-05-04 06:08 28.29265 77.06966 11512 ft 356 kts 227°
2026-05-04 06:08 28.27517 77.04970 12578 ft 358 kts 226°
2026-05-04 06:08 28.25729 77.02954 13519 ft 367 kts 226°
2026-05-04 06:09 28.23901 77.00904 14357 ft 374 kts 226°
2026-05-04 06:09 28.22026 76.98806 15200 ft 382 kts 226°
2026-05-04 06:11 28.08191 76.83429 21119 ft 412 kts 226°
2026-05-04 06:11 28.06136 76.81152 21859 ft 416 kts 226°
2026-05-04 06:13 27.91118 76.64550 26291 ft 444 kts 226°
2026-05-04 06:14 27.77299 76.49942 29367 ft 467 kts 217°
2026-05-04 06:14 27.74568 76.47917 29781 ft 472 kts 215°
2026-05-04 06:15 27.71784 76.45929 30231 ft 473 kts 215°
2026-05-04 06:15 27.69011 76.43936 30779 ft 471 kts 216°
2026-05-04 06:15 27.66274 76.41927 31395 ft 468 kts 217°
2026-05-04 06:15 27.63577 76.39913 31970 ft 465 kts 217°
2026-05-04 06:16 27.60884 76.37880 32493 ft 464 kts 217°
2026-05-04 06:16 27.58209 76.35856 33004 ft 463 kts 217°
2026-05-04 06:16 27.55524 76.33829 33521 ft 462 kts 218°
2026-05-04 06:16 27.52892 76.31847 33987 ft 461 kts 218°
2026-05-04 06:17 27.50210 76.29873 34448 ft 460 kts 216°
2026-05-04 06:17 27.47484 76.27977 34890 ft 458 kts 215°
2026-05-04 06:17 27.44758 76.26132 35301 ft 456 kts 215°
2026-05-04 06:17 27.42039 76.24300 35742 ft 454 kts 215°
2026-05-04 06:18 27.39340 76.22479 36152 ft 453 kts 215°
2026-05-04 06:18 27.36642 76.20646 36529 ft 452 kts 215°
2026-05-04 06:18 27.33966 76.18820 36907 ft 451 kts 216°
2026-05-04 06:20 27.15224 76.06000 37853 ft 446 kts 216°
2026-05-04 06:21 27.02025 75.97000 37866 ft 444 kts 216°
2026-05-04 06:22 26.96967 75.93559 37869 ft 444 kts 216°
2026-05-04 06:25 26.57480 75.73159 37860 ft 458 kts 206°
2026-05-04 06:26 26.51514 75.70636 37855 ft 458 kts 206°
2026-05-04 06:26 26.45577 75.68129 37846 ft 459 kts 206°
2026-05-04 06:27 26.30651 75.61840 37840 ft 459 kts 206°
2026-05-04 06:28 26.25690 75.59753 37838 ft 458 kts 206°
2026-05-04 06:28 26.19715 75.57242 37834 ft 458 kts 206°
2026-05-04 06:29 26.13747 75.54737 37835 ft 458 kts 206°
2026-05-04 06:29 26.07774 75.52232 37835 ft 459 kts 206°
2026-05-04 06:30 26.01796 75.49728 37834 ft 459 kts 206°
2026-05-04 06:30 25.95823 75.47230 37841 ft 458 kts 206°
2026-05-04 06:31 25.90061 75.44381 37831 ft 451 kts 217°
2026-05-04 06:31 25.85073 75.40240 37829 ft 445 kts 227°
2026-05-04 06:33 25.68559 75.19822 37837 ft 447 kts 232°
2026-05-04 06:34 25.64398 75.14688 37835 ft 448 kts 232°
2026-05-04 06:34 25.60259 75.09591 37835 ft 448 kts 232°
2026-05-04 06:36 25.43525 74.89026 37833 ft 450 kts 232°
2026-05-04 06:37 25.39327 74.83881 37830 ft 450 kts 232°
2026-05-04 06:37 25.35127 74.78739 37833 ft 450 kts 232°
2026-05-04 06:38 25.30924 74.73599 37830 ft 451 kts 232°
2026-05-04 06:40 25.14086 74.53064 37830 ft 452 kts 232°
2026-05-04 06:40 25.09857 74.47917 37832 ft 452 kts 232°
2026-05-04 06:41 25.05620 74.42763 37835 ft 452 kts 232°
2026-05-04 06:41 25.01420 74.37657 37834 ft 452 kts 232°
2026-05-04 06:42 24.97188 74.32518 37832 ft 453 kts 232°
2026-05-04 06:44 24.80214 74.11963 37848 ft 454 kts 232°
2026-05-04 06:44 24.75964 74.06831 37849 ft 454 kts 232°
2026-05-04 06:45 24.71707 74.01695 37857 ft 454 kts 232°
2026-05-04 06:45 24.67444 73.96556 37856 ft 454 kts 232°
2026-05-04 06:46 24.63203 73.91446 37851 ft 454 kts 233°
2026-05-04 06:46 24.59434 73.85934 37858 ft 449 kts 241°
2026-05-04 06:48 24.46150 73.62664 37839 ft 450 kts 241°
2026-05-04 06:50 24.32728 73.39397 37847 ft 452 kts 241°
2026-05-04 06:51 24.29355 73.33568 37828 ft 453 kts 241°
2026-05-04 06:51 24.25982 73.27744 37818 ft 453 kts 241°
2026-05-04 06:52 24.22599 73.21908 37830 ft 453 kts 241°
2026-05-04 06:52 24.19214 73.16081 37819 ft 453 kts 241°
2026-05-04 06:53 24.15852 73.10297 37816 ft 453 kts 241°
2026-05-04 06:53 24.12465 73.04475 37817 ft 453 kts 241°
2026-05-04 06:54 24.09051 72.98616 37806 ft 453 kts 241°
2026-05-04 06:54 24.05675 72.92830 37798 ft 453 kts 241°
2026-05-04 06:55 24.02281 72.87017 37795 ft 453 kts 241°
2026-05-04 06:55 23.98883 72.81206 37794 ft 454 kts 241°
2026-05-04 06:57 23.85264 72.57984 37778 ft 454 kts 241°
2026-05-04 06:58 23.81848 72.52175 37773 ft 455 kts 241°
2026-05-04 06:58 23.78425 72.46361 37772 ft 455 kts 241°
2026-05-04 06:59 23.74998 72.40549 37765 ft 455 kts 241°
2026-05-04 06:59 23.71581 72.34759 37763 ft 455 kts 241°
2026-05-04 07:01 23.57842 72.11547 37754 ft 456 kts 241°
2026-05-04 07:02 23.54388 72.05727 37763 ft 456 kts 241°
2026-05-04 07:02 23.50936 71.99920 37762 ft 456 kts 241°
2026-05-04 07:03 23.47485 71.94120 37754 ft 456 kts 241°
2026-05-04 07:03 23.44029 71.88317 37752 ft 457 kts 241°
2026-05-04 07:04 23.40584 71.82540 37738 ft 457 kts 241°